Year,Month,Day,Hour,Minute,Value (Times are PST for temperature in C)
2008,07,15,00,00,13.60
2008,07,15,00,01,13.60
2008,07,15,00,02,13.60
2008,07,15,00,03,13.60
2008,07,15,00,04,13.50
2008,07,15,00,05,13.50
2008,07,15,00,06,13.50
2008,07,15,00,07,13.50
2008,07,15,00,08,13.40
2008,07,15,00,09,13.40
2008,07,15,00,10,13.40
2008,07,15,00,11,13.40
2008,07,15,00,12,13.40
2008,07,15,00,13,13.30
2008,07,15,00,14,13.30
2008,07,15,00,15,13.30
2008,07,15,00,16,13.30
2008,07,15,00,17,13.30
2008,07,15,00,18,13.30
2008,07,15,00,19,13.30
2008,07,15,00,20,13.30
2008,07,15,00,21,13.30
2008,07,15,00,22,13.30
2008,07,15,00,23,13.30
2008,07,15,00,24,13.20
2008,07,15,00,25,13.20
2008,07,15,00,26,13.20
2008,07,15,00,27,13.20
2008,07,15,00,28,13.20
2008,07,15,00,29,13.20
2008,07,15,00,30,13.20
2008,07,15,00,31,13.20
2008,07,15,00,32,13.20
2008,07,15,00,33,13.20
2008,07,15,00,34,13.20
2008,07,15,00,35,13.20
2008,07,15,00,36,13.10
2008,07,15,00,37,13.10
2008,07,15,00,38,13.10
2008,07,15,00,39,13.10
2008,07,15,00,40,13.10
2008,07,15,00,41,13.10
2008,07,15,00,42,13.10
2008,07,15,00,43,13.10
2008,07,15,00,44,13.00
2008,07,15,00,45,13.00
2008,07,15,00,46,13.00
2008,07,15,00,47,13.00
2008,07,15,00,48,13.00
2008,07,15,00,49,13.00
2008,07,15,00,50,13.00
2008,07,15,00,51,13.00
2008,07,15,00,52,13.00
2008,07,15,00,53,12.90
2008,07,15,00,54,12.90
2008,07,15,00,55,12.90
2008,07,15,00,56,12.80
2008,07,15,00,57,12.80
2008,07,15,00,58,12.80
2008,07,15,00,59,12.70
2008,07,15,01,00,12.60
2008,07,15,01,01,12.60
2008,07,15,01,02,12.50
2008,07,15,01,03,12.50
2008,07,15,01,04,12.50
2008,07,15,01,05,12.40
2008,07,15,01,06,12.40
2008,07,15,01,07,12.40
2008,07,15,01,08,12.30
2008,07,15,01,09,12.30
2008,07,15,01,10,12.30
2008,07,15,01,11,12.30
2008,07,15,01,12,12.30
2008,07,15,01,13,12.30
2008,07,15,01,14,12.30
2008,07,15,01,15,12.30
2008,07,15,01,16,12.30
2008,07,15,01,17,12.30
2008,07,15,01,18,12.30
2008,07,15,01,19,12.30
2008,07,15,01,20,12.30
2008,07,15,01,21,12.30
2008,07,15,01,22,12.30
2008,07,15,01,23,12.20
2008,07,15,01,24,12.20
2008,07,15,01,25,12.20
2008,07,15,01,26,12.20
2008,07,15,01,27,12.20
2008,07,15,01,28,12.20
2008,07,15,01,29,12.20
2008,07,15,01,30,12.10
2008,07,15,01,31,12.10
2008,07,15,01,32,12.10
2008,07,15,01,33,12.10
2008,07,15,01,34,12.10
2008,07,15,01,35,12.10
2008,07,15,01,36,12.00
2008,07,15,01,37,12.00
2008,07,15,01,38,12.00
2008,07,15,01,39,12.00
2008,07,15,01,40,12.00
2008,07,15,01,41,12.00
2008,07,15,01,42,11.90
2008,07,15,01,43,11.90
2008,07,15,01,44,11.90
2008,07,15,01,45,11.90
2008,07,15,01,46,11.90
2008,07,15,01,47,11.90
2008,07,15,01,48,11.80
2008,07,15,01,49,11.80
2008,07,15,01,50,11.80
2008,07,15,01,51,11.80
2008,07,15,01,52,11.80
2008,07,15,01,53,11.90
2008,07,15,01,54,11.90
2008,07,15,01,55,11.90
2008,07,15,01,56,11.90
2008,07,15,01,57,11.90
2008,07,15,01,58,11.80
2008,07,15,01,59,11.80
2008,07,15,02,00,11.80
2008,07,15,02,01,11.80
2008,07,15,02,02,11.80
2008,07,15,02,03,11.80
2008,07,15,02,04,11.80
2008,07,15,02,05,11.80
2008,07,15,02,06,11.70
2008,07,15,02,07,11.70
2008,07,15,02,08,11.70
2008,07,15,02,09,11.70
2008,07,15,02,10,11.70
2008,07,15,02,11,11.70
2008,07,15,02,12,11.70
2008,07,15,02,13,11.60
2008,07,15,02,14,11.60
2008,07,15,02,15,11.60
2008,07,15,02,16,11.60
2008,07,15,02,17,11.60
2008,07,15,02,18,11.60
2008,07,15,02,19,11.60
2008,07,15,02,20,11.60
2008,07,15,02,21,11.60
2008,07,15,02,22,11.60
2008,07,15,02,23,11.60
2008,07,15,02,24,11.60
2008,07,15,02,25,11.60
2008,07,15,02,26,11.60
2008,07,15,02,27,11.60
2008,07,15,02,28,11.60
2008,07,15,02,29,11.60
2008,07,15,02,30,11.60
2008,07,15,02,31,11.60
2008,07,15,02,32,11.60
2008,07,15,02,33,11.60
2008,07,15,02,34,11.60
2008,07,15,02,35,11.60
2008,07,15,02,36,11.60
2008,07,15,02,37,11.60
2008,07,15,02,38,11.60
2008,07,15,02,39,11.60
2008,07,15,02,40,11.60
2008,07,15,02,41,11.60
2008,07,15,02,42,11.60
2008,07,15,02,43,11.60
2008,07,15,02,44,11.60
2008,07,15,02,45,11.60
2008,07,15,02,46,11.60
2008,07,15,02,47,11.60
2008,07,15,02,48,11.50
2008,07,15,02,49,11.40
2008,07,15,02,50,11.40
2008,07,15,02,51,11.40
2008,07,15,02,52,11.40
2008,07,15,02,53,11.40
2008,07,15,02,54,11.40
2008,07,15,02,55,11.40
2008,07,15,02,56,11.40
2008,07,15,02,57,11.40
2008,07,15,02,58,11.40
2008,07,15,02,59,11.40
2008,07,15,03,00,11.40
2008,07,15,03,01,11.40
2008,07,15,03,02,11.40
2008,07,15,03,03,11.40
2008,07,15,03,04,11.40
2008,07,15,03,05,11.40
2008,07,15,03,06,11.40
2008,07,15,03,07,11.40
2008,07,15,03,08,11.40
2008,07,15,03,09,11.40
2008,07,15,03,10,11.40
2008,07,15,03,11,11.30
2008,07,15,03,12,11.30
2008,07,15,03,13,11.20
2008,07,15,03,14,11.20
2008,07,15,03,15,11.10
2008,07,15,03,16,11.10
2008,07,15,03,17,11.10
2008,07,15,03,18,11.10
2008,07,15,03,19,11.10
2008,07,15,03,20,11.10
2008,07,15,03,21,11.10
2008,07,15,03,22,11.10
2008,07,15,03,23,11.10
2008,07,15,03,24,11.10
2008,07,15,03,25,11.00
2008,07,15,03,26,10.90
2008,07,15,03,27,10.90
2008,07,15,03,28,10.90
2008,07,15,03,29,10.90
2008,07,15,03,30,10.90
2008,07,15,03,31,10.90
2008,07,15,03,32,10.90
2008,07,15,03,33,10.90
2008,07,15,03,34,10.90
2008,07,15,03,35,10.90
2008,07,15,03,36,10.90
2008,07,15,03,37,10.90
2008,07,15,03,38,10.90
2008,07,15,03,39,10.90
2008,07,15,03,40,10.90
2008,07,15,03,41,10.90
2008,07,15,03,42,10.90
2008,07,15,03,43,10.90
2008,07,15,03,44,10.90
2008,07,15,03,45,10.80
2008,07,15,03,46,10.80
2008,07,15,03,47,10.80
2008,07,15,03,48,10.80
2008,07,15,03,49,10.80
2008,07,15,03,50,10.80
2008,07,15,03,51,10.70
2008,07,15,03,52,10.70
2008,07,15,03,53,10.70
2008,07,15,03,54,10.70
2008,07,15,03,55,10.70
2008,07,15,03,56,10.70
2008,07,15,03,57,10.70
2008,07,15,03,58,10.70
2008,07,15,03,59,10.70
2008,07,15,04,00,10.70
2008,07,15,04,01,10.70
2008,07,15,04,02,10.60
2008,07,15,04,03,10.60
2008,07,15,04,04,10.60
2008,07,15,04,05,10.60
2008,07,15,04,06,10.60
2008,07,15,04,07,10.60
2008,07,15,04,08,10.60
2008,07,15,04,09,10.60
2008,07,15,04,10,10.60
2008,07,15,04,11,10.60
2008,07,15,04,12,10.60
2008,07,15,04,13,10.60
2008,07,15,04,14,10.60
2008,07,15,04,15,10.60
2008,07,15,04,16,10.60
2008,07,15,04,17,10.60
2008,07,15,04,18,10.60
2008,07,15,04,19,10.60
2008,07,15,04,20,10.40
2008,07,15,04,21,10.40
2008,07,15,04,22,10.40
2008,07,15,04,23,10.40
2008,07,15,04,24,10.40
2008,07,15,04,25,10.40
2008,07,15,04,26,10.40
2008,07,15,04,27,10.40
2008,07,15,04,28,10.40
2008,07,15,04,29,10.40
2008,07,15,04,30,10.40
2008,07,15,04,31,10.40
2008,07,15,04,32,10.40
2008,07,15,04,33,10.30
2008,07,15,04,34,10.30
2008,07,15,04,35,10.30
2008,07,15,04,36,10.30
2008,07,15,04,37,10.30
2008,07,15,04,38,10.30
2008,07,15,04,39,10.30
2008,07,15,04,40,10.20
2008,07,15,04,41,10.30
2008,07,15,04,42,10.30
2008,07,15,04,43,10.20
2008,07,15,04,44,10.20
2008,07,15,04,45,10.20
2008,07,15,04,46,10.20
2008,07,15,04,47,10.20
2008,07,15,04,48,10.20
2008,07,15,04,49,10.20
2008,07,15,04,50,10.20
2008,07,15,04,51,10.20
2008,07,15,04,52,10.20
2008,07,15,04,53,10.20
2008,07,15,04,54,10.20
2008,07,15,04,55,10.20
2008,07,15,04,56,10.10
2008,07,15,04,57,10.10
2008,07,15,04,58,10.10
2008,07,15,04,59,10.10
2008,07,15,05,00,10.10
2008,07,15,05,01,10.10
2008,07,15,05,02,10.10
2008,07,15,05,03,10.10
2008,07,15,05,04,10.10
2008,07,15,05,05,10.10
2008,07,15,05,06,9.90
2008,07,15,05,07,9.90
2008,07,15,05,08,9.90
2008,07,15,05,09,9.90
2008,07,15,05,10,9.90
2008,07,15,05,11,9.90
2008,07,15,05,12,9.90
2008,07,15,05,13,9.90
2008,07,15,05,14,9.90
2008,07,15,05,15,9.90
2008,07,15,05,16,9.90
2008,07,15,05,17,9.90
2008,07,15,05,18,9.90
2008,07,15,05,19,9.80
2008,07,15,05,20,9.80
2008,07,15,05,21,9.90
2008,07,15,05,22,9.90
2008,07,15,05,23,9.90
2008,07,15,05,24,9.90
2008,07,15,05,25,9.90
2008,07,15,05,26,9.90
2008,07,15,05,27,9.90
2008,07,15,05,28,9.90
2008,07,15,05,29,9.90
2008,07,15,05,30,9.90
2008,07,15,05,31,9.90
2008,07,15,05,32,9.90
2008,07,15,05,33,9.90
2008,07,15,05,34,9.90
2008,07,15,05,35,9.90
2008,07,15,05,36,9.90
2008,07,15,05,37,9.90
2008,07,15,05,38,9.90
2008,07,15,05,39,9.90
2008,07,15,05,40,9.90
2008,07,15,05,41,9.90
2008,07,15,05,42,9.90
2008,07,15,05,43,9.90
2008,07,15,05,44,9.90
2008,07,15,05,45,9.90
2008,07,15,05,46,9.90
2008,07,15,05,47,9.90
2008,07,15,05,48,9.90
2008,07,15,05,49,9.90
2008,07,15,05,50,9.90
2008,07,15,05,51,9.90
2008,07,15,05,52,10.00
2008,07,15,05,53,10.10
2008,07,15,05,54,10.10
2008,07,15,05,55,10.10
2008,07,15,05,56,10.10
2008,07,15,05,57,10.10
2008,07,15,05,58,10.00
2008,07,15,05,59,9.90
2008,07,15,06,00,9.90
2008,07,15,06,01,9.90
2008,07,15,06,02,9.90
2008,07,15,06,03,9.90
2008,07,15,06,04,9.90
2008,07,15,06,05,9.90
2008,07,15,06,06,9.90
2008,07,15,06,07,9.90
2008,07,15,06,08,9.90
2008,07,15,06,09,9.90
2008,07,15,06,10,9.90
2008,07,15,06,11,9.90
2008,07,15,06,12,10.10
2008,07,15,06,13,10.10
2008,07,15,06,14,10.10
2008,07,15,06,15,10.10
2008,07,15,06,16,10.10
2008,07,15,06,17,10.10
2008,07,15,06,18,10.10
2008,07,15,06,19,10.20
2008,07,15,06,20,10.20
2008,07,15,06,21,10.20
2008,07,15,06,22,10.20
2008,07,15,06,23,10.30
2008,07,15,06,24,10.30
2008,07,15,06,25,10.30
2008,07,15,06,26,10.40
2008,07,15,06,27,10.40
2008,07,15,06,28,10.40
2008,07,15,06,29,10.40
2008,07,15,06,30,10.40
2008,07,15,06,31,10.40
2008,07,15,06,32,10.50
2008,07,15,06,33,10.60
2008,07,15,06,34,10.60
2008,07,15,06,35,10.70
2008,07,15,06,36,10.80
2008,07,15,06,37,10.80
2008,07,15,06,38,10.90
2008,07,15,06,39,10.90
2008,07,15,06,40,11.00
2008,07,15,06,41,11.10
2008,07,15,06,42,11.10
2008,07,15,06,43,11.10
2008,07,15,06,44,11.20
2008,07,15,06,45,11.20
2008,07,15,06,46,11.30
2008,07,15,06,47,11.40
2008,07,15,06,48,11.40
2008,07,15,06,49,11.50
2008,07,15,06,50,11.60
2008,07,15,06,51,11.60
2008,07,15,06,52,11.70
2008,07,15,06,53,11.80
2008,07,15,06,54,11.80
2008,07,15,06,55,11.90
2008,07,15,06,56,12.00
2008,07,15,06,57,12.10
2008,07,15,06,58,12.10
2008,07,15,06,59,12.20
2008,07,15,07,00,12.30
2008,07,15,07,01,12.40
2008,07,15,07,02,12.50
2008,07,15,07,03,12.60
2008,07,15,07,04,12.60
2008,07,15,07,05,12.70
2008,07,15,07,06,12.70
2008,07,15,07,07,12.80
2008,07,15,07,08,12.80
2008,07,15,07,09,12.80
2008,07,15,07,10,12.90
2008,07,15,07,11,12.90
2008,07,15,07,12,13.00
2008,07,15,07,13,13.10
2008,07,15,07,14,13.20
2008,07,15,07,15,13.30
2008,07,15,07,16,13.50
2008,07,15,07,17,13.50
2008,07,15,07,18,13.60
2008,07,15,07,19,13.70
2008,07,15,07,20,13.70
2008,07,15,07,21,13.70
2008,07,15,07,22,13.80
2008,07,15,07,23,13.90
2008,07,15,07,24,14.00
2008,07,15,07,25,14.10
2008,07,15,07,26,14.20
2008,07,15,07,27,14.30
2008,07,15,07,28,14.40
2008,07,15,07,29,14.40
2008,07,15,07,30,14.50
2008,07,15,07,31,14.50
2008,07,15,07,32,14.60
2008,07,15,07,33,14.60
2008,07,15,07,34,14.70
2008,07,15,07,35,14.70
2008,07,15,07,36,14.80
2008,07,15,07,37,14.80
2008,07,15,07,38,14.90
2008,07,15,07,39,14.90
2008,07,15,07,40,15.00
2008,07,15,07,41,15.00
2008,07,15,07,42,15.00
2008,07,15,07,43,14.90
2008,07,15,07,44,14.90
2008,07,15,07,45,14.90
2008,07,15,07,46,14.80
2008,07,15,07,47,14.80
2008,07,15,07,48,14.80
2008,07,15,07,49,14.80
2008,07,15,07,50,14.80
2008,07,15,07,51,14.70
2008,07,15,07,52,14.70
2008,07,15,07,53,14.70
2008,07,15,07,54,14.80
2008,07,15,07,55,14.80
2008,07,15,07,56,14.80
2008,07,15,07,57,14.80
2008,07,15,07,58,14.80
2008,07,15,07,59,14.80
2008,07,15,08,00,14.80
2008,07,15,08,01,14.90
2008,07,15,08,02,15.00
2008,07,15,08,03,15.10
2008,07,15,08,04,15.20
2008,07,15,08,05,15.40
2008,07,15,08,06,15.50
2008,07,15,08,07,15.60
2008,07,15,08,08,15.70
2008,07,15,08,09,15.80
2008,07,15,08,10,15.80
2008,07,15,08,11,15.90
2008,07,15,08,12,16.00
2008,07,15,08,13,16.10
2008,07,15,08,14,16.10
2008,07,15,08,15,16.10
2008,07,15,08,16,16.20
2008,07,15,08,17,16.20
2008,07,15,08,18,16.20
2008,07,15,08,19,16.20
2008,07,15,08,20,16.10
2008,07,15,08,21,16.10
2008,07,15,08,22,16.10
2008,07,15,08,23,16.10
2008,07,15,08,24,15.90
2008,07,15,08,25,15.90
2008,07,15,08,26,15.80
2008,07,15,08,27,15.70
2008,07,15,08,28,15.50
2008,07,15,08,29,15.40
2008,07,15,08,30,15.20
2008,07,15,08,31,15.00
2008,07,15,08,32,14.80
2008,07,15,08,33,14.70
2008,07,15,08,34,14.50
2008,07,15,08,35,14.40
2008,07,15,08,36,14.20
2008,07,15,08,37,14.00
2008,07,15,08,38,13.90
2008,07,15,08,39,13.80
2008,07,15,08,40,13.80
2008,07,15,08,41,13.80
2008,07,15,08,42,13.70
2008,07,15,08,43,13.70
2008,07,15,08,44,13.70
2008,07,15,08,45,13.60
2008,07,15,08,46,13.60
2008,07,15,08,47,13.60
2008,07,15,08,48,13.60
2008,07,15,08,49,13.70
2008,07,15,08,50,13.70
2008,07,15,08,51,13.70
2008,07,15,08,52,13.80
2008,07,15,08,53,13.90
2008,07,15,08,54,14.00
2008,07,15,08,55,14.10
2008,07,15,08,56,14.20
2008,07,15,08,57,14.20
2008,07,15,08,58,14.30
2008,07,15,08,59,14.30
2008,07,15,09,00,14.30
2008,07,15,09,01,14.40
2008,07,15,09,02,14.50
2008,07,15,09,03,14.50
2008,07,15,09,04,14.60
2008,07,15,09,05,14.60
2008,07,15,09,06,14.80
2008,07,15,09,07,14.90
2008,07,15,09,08,15.10
2008,07,15,09,09,15.20
2008,07,15,09,10,15.30
2008,07,15,09,11,15.40
2008,07,15,09,12,15.50
2008,07,15,09,13,15.60
2008,07,15,09,14,15.60
2008,07,15,09,15,15.70
2008,07,15,09,16,15.70
2008,07,15,09,17,15.70
2008,07,15,09,18,15.70
2008,07,15,09,19,15.70
2008,07,15,09,20,15.80
2008,07,15,09,21,15.80
2008,07,15,09,22,15.80
2008,07,15,09,23,15.90
2008,07,15,09,24,16.00
2008,07,15,09,25,16.10
2008,07,15,09,26,16.10
2008,07,15,09,27,16.00
2008,07,15,09,28,15.90
2008,07,15,09,29,15.90
2008,07,15,09,30,15.90
2008,07,15,09,31,15.80
2008,07,15,09,32,15.80
2008,07,15,09,33,15.80
2008,07,15,09,34,15.80
2008,07,15,09,35,15.80
2008,07,15,09,36,15.80
2008,07,15,09,37,15.70
2008,07,15,09,38,15.60
2008,07,15,09,39,15.50
2008,07,15,09,40,15.30
2008,07,15,09,41,15.30
2008,07,15,09,42,15.30
2008,07,15,09,43,15.40
2008,07,15,09,44,15.50
2008,07,15,09,45,15.50
2008,07,15,09,46,15.50
2008,07,15,09,47,15.50
2008,07,15,09,48,15.60
2008,07,15,09,49,15.70
2008,07,15,09,50,15.80
2008,07,15,09,51,15.90
2008,07,15,09,52,16.00
2008,07,15,09,53,16.10
2008,07,15,09,54,16.10
2008,07,15,09,55,16.10
2008,07,15,09,56,16.20
2008,07,15,09,57,16.30
2008,07,15,09,58,16.40
2008,07,15,09,59,16.40
2008,07,15,10,00,16.40
2008,07,15,10,01,16.40
2008,07,15,10,02,16.40
2008,07,15,10,03,16.40
2008,07,15,10,04,16.40
2008,07,15,10,05,16.50
2008,07,15,10,06,16.60
2008,07,15,10,07,16.70
2008,07,15,10,08,16.70
2008,07,15,10,09,16.80
2008,07,15,10,10,16.80
2008,07,15,10,11,16.70
2008,07,15,10,12,16.70
2008,07,15,10,13,16.70
2008,07,15,10,14,16.70
2008,07,15,10,15,16.70
2008,07,15,10,16,16.70
2008,07,15,10,17,16.80
2008,07,15,10,18,16.80
2008,07,15,10,19,16.80
2008,07,15,10,20,16.90
2008,07,15,10,21,16.90
2008,07,15,10,22,17.00
2008,07,15,10,23,17.00
2008,07,15,10,24,17.00
2008,07,15,10,25,17.00
2008,07,15,10,26,16.90
2008,07,15,10,27,16.90
2008,07,15,10,28,16.90
2008,07,15,10,29,17.00
2008,07,15,10,30,17.00
2008,07,15,10,31,17.00
2008,07,15,10,32,17.00
2008,07,15,10,33,17.10
2008,07,15,10,34,17.20
2008,07,15,10,35,17.30
2008,07,15,10,36,17.40
2008,07,15,10,37,17.50
2008,07,15,10,38,17.60
2008,07,15,10,39,17.80
2008,07,15,10,40,17.80
2008,07,15,10,41,17.80
2008,07,15,10,42,17.80
2008,07,15,10,43,17.80
2008,07,15,10,44,17.80
2008,07,15,10,45,17.70
2008,07,15,10,46,17.60
2008,07,15,10,47,17.50
2008,07,15,10,48,17.30
2008,07,15,10,49,17.20
2008,07,15,10,50,17.10
2008,07,15,10,51,17.10
2008,07,15,10,52,17.10
2008,07,15,10,53,17.30
2008,07,15,10,54,17.30
2008,07,15,10,55,17.30
2008,07,15,10,56,17.20
2008,07,15,10,57,17.20
2008,07,15,10,58,17.20
2008,07,15,10,59,17.20
2008,07,15,11,00,17.30
2008,07,15,11,01,17.20
2008,07,15,11,02,17.20
2008,07,15,11,03,17.30
2008,07,15,11,04,17.40
2008,07,15,11,05,17.50
2008,07,15,11,06,17.60
2008,07,15,11,07,17.70
2008,07,15,11,08,17.80
2008,07,15,11,09,17.70
2008,07,15,11,10,17.80
2008,07,15,11,11,17.70
2008,07,15,11,12,17.70
2008,07,15,11,13,17.70
2008,07,15,11,14,17.70
2008,07,15,11,15,17.70
2008,07,15,11,16,17.70
2008,07,15,11,17,17.70
2008,07,15,11,18,17.80
2008,07,15,11,19,17.80
2008,07,15,11,20,17.80
2008,07,15,11,21,17.80
2008,07,15,11,22,17.70
2008,07,15,11,23,17.70
2008,07,15,11,24,17.60
2008,07,15,11,25,17.60
2008,07,15,11,26,17.60
2008,07,15,11,27,17.70
2008,07,15,11,28,17.70
2008,07,15,11,29,17.80
2008,07,15,11,30,17.80
2008,07,15,11,31,17.80
2008,07,15,11,32,17.80
2008,07,15,11,33,17.80
2008,07,15,11,34,17.70
2008,07,15,11,35,17.70
2008,07,15,11,36,17.80
2008,07,15,11,37,17.90
2008,07,15,11,38,17.90
2008,07,15,11,39,18.10
2008,07,15,11,40,18.10
2008,07,15,11,41,18.00
2008,07,15,11,42,17.90
2008,07,15,11,43,17.90
2008,07,15,11,44,17.80
2008,07,15,11,45,17.80
2008,07,15,11,46,17.80
2008,07,15,11,47,17.90
2008,07,15,11,48,17.90
2008,07,15,11,49,18.00
2008,07,15,11,50,18.10
2008,07,15,11,51,18.10
2008,07,15,11,52,18.20
2008,07,15,11,53,18.20
2008,07,15,11,54,18.30
2008,07,15,11,55,18.30
2008,07,15,11,56,18.30
2008,07,15,11,57,18.30
2008,07,15,11,58,18.20
2008,07,15,11,59,18.10
2008,07,15,12,00,18.00
2008,07,15,12,01,17.90
2008,07,15,12,02,18.00
2008,07,15,12,03,18.20
2008,07,15,12,04,18.40
2008,07,15,12,05,18.50
2008,07,15,12,06,18.50
2008,07,15,12,07,18.40
2008,07,15,12,08,18.40
2008,07,15,12,09,18.50
2008,07,15,12,10,18.50
2008,07,15,12,11,18.60
2008,07,15,12,12,18.60
2008,07,15,12,13,18.80
2008,07,15,12,14,18.90
2008,07,15,12,15,19.00
2008,07,15,12,16,19.00
2008,07,15,12,17,18.90
2008,07,15,12,18,18.70
2008,07,15,12,19,18.50
2008,07,15,12,20,18.40
2008,07,15,12,21,18.40
2008,07,15,12,22,18.40
2008,07,15,12,23,18.40
2008,07,15,12,24,18.60
2008,07,15,12,25,18.80
2008,07,15,12,26,18.80
2008,07,15,12,27,18.80
2008,07,15,12,28,18.80
2008,07,15,12,29,18.80
2008,07,15,12,30,18.80
2008,07,15,12,31,18.90
2008,07,15,12,32,19.10
2008,07,15,12,33,19.10
2008,07,15,12,34,19.10
2008,07,15,12,35,19.10
2008,07,15,12,36,19.10
2008,07,15,12,37,19.20
2008,07,15,12,38,19.30
2008,07,15,12,39,19.30
2008,07,15,12,40,19.40
2008,07,15,12,41,19.50
2008,07,15,12,42,19.40
2008,07,15,12,43,19.40
2008,07,15,12,44,19.20
2008,07,15,12,45,19.20
2008,07,15,12,46,19.30
2008,07,15,12,47,19.30
2008,07,15,12,48,19.40
2008,07,15,12,49,19.50
2008,07,15,12,50,19.40
2008,07,15,12,51,19.30
2008,07,15,12,52,19.20
2008,07,15,12,53,19.20
2008,07,15,12,54,19.20
2008,07,15,12,55,19.20
2008,07,15,12,56,19.10
2008,07,15,12,57,19.10
2008,07,15,12,58,19.10
2008,07,15,12,59,19.20
2008,07,15,13,00,19.20
2008,07,15,13,01,19.40
2008,07,15,13,02,19.40
2008,07,15,13,03,19.40
2008,07,15,13,04,19.50
2008,07,15,13,05,19.50
2008,07,15,13,06,19.60
2008,07,15,13,07,19.60
2008,07,15,13,08,19.70
2008,07,15,13,09,19.80
2008,07,15,13,10,20.00
2008,07,15,13,11,20.10
2008,07,15,13,12,19.90
2008,07,15,13,13,19.90
2008,07,15,13,14,19.80
2008,07,15,13,15,19.70
2008,07,15,13,16,19.80
2008,07,15,13,17,19.90
2008,07,15,13,18,19.90
2008,07,15,13,19,19.90
2008,07,15,13,20,19.90
2008,07,15,13,21,19.90
2008,07,15,13,22,19.90
2008,07,15,13,23,20.10
2008,07,15,13,24,20.20
2008,07,15,13,25,20.40
2008,07,15,13,26,20.40
2008,07,15,13,27,20.40
2008,07,15,13,28,20.40
2008,07,15,13,29,20.40
2008,07,15,13,30,20.50
2008,07,15,13,31,20.50
2008,07,15,13,32,20.50
2008,07,15,13,33,20.50
2008,07,15,13,34,20.40
2008,07,15,13,35,20.40
2008,07,15,13,36,20.30
2008,07,15,13,37,20.30
2008,07,15,13,38,20.20
2008,07,15,13,39,20.20
2008,07,15,13,40,20.20
2008,07,15,13,41,20.00
2008,07,15,13,42,19.60
2008,07,15,13,43,19.20
2008,07,15,13,44,18.90
2008,07,15,13,45,18.80
2008,07,15,13,46,18.80
2008,07,15,13,47,18.90
2008,07,15,13,48,18.90
2008,07,15,13,49,19.10
2008,07,15,13,50,19.10
2008,07,15,13,51,19.20
2008,07,15,13,52,19.20
2008,07,15,13,53,19.20
2008,07,15,13,54,19.10
2008,07,15,13,55,19.10
2008,07,15,13,56,19.20
2008,07,15,13,57,19.00
2008,07,15,13,58,18.90
2008,07,15,13,59,18.90
2008,07,15,14,00,18.90
2008,07,15,14,01,18.90
2008,07,15,14,02,18.90
2008,07,15,14,03,18.90
2008,07,15,14,04,18.90
2008,07,15,14,05,18.90
2008,07,15,14,06,18.80
2008,07,15,14,07,18.70
2008,07,15,14,08,18.50
2008,07,15,14,09,18.50
2008,07,15,14,10,18.40
2008,07,15,14,11,18.40
2008,07,15,14,12,18.40
2008,07,15,14,13,18.40
2008,07,15,14,14,18.40
2008,07,15,14,15,18.30
2008,07,15,14,16,18.20
2008,07,15,14,17,18.10
2008,07,15,14,18,18.10
2008,07,15,14,19,18.20
2008,07,15,14,20,18.20
2008,07,15,14,21,18.30
2008,07,15,14,22,18.40
2008,07,15,14,23,18.60
2008,07,15,14,24,18.70
2008,07,15,14,25,18.70
2008,07,15,14,26,18.60
2008,07,15,14,27,18.50
2008,07,15,14,28,18.40
2008,07,15,14,29,18.40
2008,07,15,14,30,18.20
2008,07,15,14,31,18.30
2008,07,15,14,32,18.30
2008,07,15,14,33,18.30
2008,07,15,14,34,18.40
2008,07,15,14,35,18.40
2008,07,15,14,36,18.50
2008,07,15,14,37,18.40
2008,07,15,14,38,18.30
2008,07,15,14,39,18.30
2008,07,15,14,40,18.40
2008,07,15,14,41,18.40
2008,07,15,14,42,18.40
2008,07,15,14,43,18.30
2008,07,15,14,44,18.40
2008,07,15,14,45,18.40
2008,07,15,14,46,18.30
2008,07,15,14,47,18.30
2008,07,15,14,48,18.30
2008,07,15,14,49,18.30
2008,07,15,14,50,18.20
2008,07,15,14,51,18.20
2008,07,15,14,52,18.10
2008,07,15,14,53,18.10
2008,07,15,14,54,18.00
2008,07,15,14,55,18.10
2008,07,15,14,56,18.10
2008,07,15,14,57,18.00
2008,07,15,14,58,17.90
2008,07,15,14,59,17.90
2008,07,15,15,00,17.90
2008,07,15,15,01,17.80
2008,07,15,15,02,17.80
2008,07,15,15,03,17.80
2008,07,15,15,04,17.80
2008,07,15,15,05,17.80
2008,07,15,15,06,17.90
2008,07,15,15,07,18.00
2008,07,15,15,08,18.10
2008,07,15,15,09,18.10
2008,07,15,15,10,18.10
2008,07,15,15,11,18.10
2008,07,15,15,12,18.10
2008,07,15,15,13,18.10
2008,07,15,15,14,18.10
2008,07,15,15,15,18.10
2008,07,15,15,16,18.20
2008,07,15,15,17,18.20
2008,07,15,15,18,18.10
2008,07,15,15,19,18.00
2008,07,15,15,20,18.00
2008,07,15,15,21,17.90
2008,07,15,15,22,17.90
2008,07,15,15,23,17.90
2008,07,15,15,24,17.90
2008,07,15,15,25,17.90
2008,07,15,15,26,17.80
2008,07,15,15,27,17.80
2008,07,15,15,28,17.90
2008,07,15,15,29,17.80
2008,07,15,15,30,17.70
2008,07,15,15,31,17.70
2008,07,15,15,32,17.70
2008,07,15,15,33,17.70
2008,07,15,15,34,17.60
2008,07,15,15,35,17.70
2008,07,15,15,36,17.70
2008,07,15,15,37,17.70
2008,07,15,15,38,17.80
2008,07,15,15,39,17.80
2008,07,15,15,40,17.80
2008,07,15,15,41,17.80
2008,07,15,15,42,17.80
2008,07,15,15,43,17.70
2008,07,15,15,44,17.60
2008,07,15,15,45,17.60
2008,07,15,15,46,17.40
2008,07,15,15,47,17.30
2008,07,15,15,48,17.20
2008,07,15,15,49,17.10
2008,07,15,15,50,16.90
2008,07,15,15,51,16.80
2008,07,15,15,52,16.50
2008,07,15,15,53,16.30
2008,07,15,15,54,16.10
2008,07,15,15,55,16.00
2008,07,15,15,56,15.90
2008,07,15,15,57,16.00
2008,07,15,15,58,16.10
2008,07,15,15,59,16.10
2008,07,15,16,00,15.90
2008,07,15,16,01,15.90
2008,07,15,16,02,15.90
2008,07,15,16,03,15.90
2008,07,15,16,04,15.80
2008,07,15,16,05,15.70
2008,07,15,16,06,15.60
2008,07,15,16,07,15.60
2008,07,15,16,08,15.60
2008,07,15,16,09,15.60
2008,07,15,16,10,15.60
2008,07,15,16,11,15.60
2008,07,15,16,12,15.60
2008,07,15,16,13,15.60
2008,07,15,16,14,15.70
2008,07,15,16,15,15.70
2008,07,15,16,16,15.70
2008,07,15,16,17,15.80
2008,07,15,16,18,15.80
2008,07,15,16,19,15.80
2008,07,15,16,20,15.90
2008,07,15,16,21,16.00
2008,07,15,16,22,16.10
2008,07,15,16,23,16.20
2008,07,15,16,24,16.40
2008,07,15,16,25,16.40
2008,07,15,16,26,16.40
2008,07,15,16,27,16.40
2008,07,15,16,28,16.40
2008,07,15,16,29,16.50
2008,07,15,16,30,16.40
2008,07,15,16,31,16.40
2008,07,15,16,32,16.50
2008,07,15,16,33,16.70
2008,07,15,16,34,16.80
2008,07,15,16,35,16.90
2008,07,15,16,36,16.90
2008,07,15,16,37,17.00
2008,07,15,16,38,17.00
2008,07,15,16,39,16.90
2008,07,15,16,40,16.80
2008,07,15,16,41,16.70
2008,07,15,16,42,16.70
2008,07,15,16,43,16.70
2008,07,15,16,44,16.70
2008,07,15,16,45,16.70
2008,07,15,16,46,16.80
2008,07,15,16,47,16.90
2008,07,15,16,48,17.00
2008,07,15,16,49,17.10
2008,07,15,16,50,17.20
2008,07,15,16,51,17.20
2008,07,15,16,52,17.10
2008,07,15,16,53,17.10
2008,07,15,16,54,17.10
2008,07,15,16,55,17.20
2008,07,15,16,56,17.20
2008,07,15,16,57,17.30
2008,07,15,16,58,17.30
2008,07,15,16,59,17.50
2008,07,15,17,00,17.60
2008,07,15,17,01,17.70
2008,07,15,17,02,17.80
2008,07,15,17,03,17.90
2008,07,15,17,04,18.00
2008,07,15,17,05,18.10
2008,07,15,17,06,18.20
2008,07,15,17,07,18.20
2008,07,15,17,08,18.20
2008,07,15,17,09,18.20
2008,07,15,17,10,18.20
2008,07,15,17,11,18.30
2008,07,15,17,12,18.30
2008,07,15,17,13,18.30
2008,07,15,17,14,18.30
2008,07,15,17,15,18.30
2008,07,15,17,16,18.30
2008,07,15,17,17,18.30
2008,07,15,17,18,18.40
2008,07,15,17,19,18.40
2008,07,15,17,20,18.40
2008,07,15,17,21,18.40
2008,07,15,17,22,18.40